Regional Weather Roundup
Issued by NWS

Home | Current Version | Previous Version | Text Only | Print | Product List | Glossary Off
Versions: 1 2 3 4 5 6 7 8 9 10 11 12 13 14 15 16 17 18 19 20 21 22 23 24 25 26 27 28 29 30 31 32 33 34 35 36 37 38 39 40 41 42 43 44 45 46 47 48 49 50

000
ASUS43 KLOT 220010
RWRIL

ILLINOIS REGIONAL WEATHER ROUNDUP
NATIONAL WEATHER SERVICE CHICAGO/ROMEOVILLE IL
700 PM CDT TUE OCT 21 2014

NOTE: "FAIR" INDICATES FEW OR NO CLOUDS BELOW 12,000 FEET WITH NO
SIGNIFICANT WEATHER AND/OR OBSTRUCTIONS TO VISIBILITY.

* THESE STATIONS ARE NOT UNDER NWS QUALITY CONTROL. THEY ALSO MAY NOT
  REPORT WEATHER SUCH AS PRECIPITATION OR FOG.

ILZ001-002-007-009-015-016-024-220100-
NORTHWEST ILLINOIS

CITY           SKY/WX    TMP DP  RH WIND       PRES   REMARKS
MOLINE         CLEAR     47  37  68 E5        30.20R
6HR MIN TEMP:  46; 6HR MAX TEMP:  59;

STERLING*      CLEAR     45  36  70 E7        30.22R
SAVANNA*       CLEAR     46  37  68 NE5       30.22R
$$

ILZ003-004-008-010-011-017-018-220100-
NORTH CENTRAL ILLINOIS

CITY           SKY/WX    TMP DP  RH WIND       PRES   REMARKS
ROCKFORD       MOCLDY    49  37  63 E7        30.25R
6HR MIN TEMP:  49; 6HR MAX TEMP:  55;

FREEPORT*      CLEAR     43  36  78 NE6       30.25R
ROCHELLE*      CLOUDY    47  38  70 NE10      30.23S
DE KALB*       CLOUDY    45  38  75 NE6       30.24R
PERU*          CLEAR     49  38  67 NE8       30.22R
$$

ILZ005-006-012>014-019>023-220100-
NORTHEAST ILLINOIS

CITY           SKY/WX    TMP DP  RH WIND       PRES   REMARKS
CHICAGO-OHARE  MOCLDY    48  37  65 NE13      30.22R
6HR MIN TEMP:  48; 6HR MAX TEMP:  52;

CHICAGO-MIDWAY CLOUDY    51  38  60 NE12      30.22R
6HR MIN TEMP:  51; 6HR MAX TEMP:  54;

AURORA         CLOUDY    49  37  63 NE7       30.23R
6HR MIN TEMP:  49; 6HR MAX TEMP:  56;

LANSING*       CLOUDY    49  39  68 N9        30.21R
JOLIET*        CLOUDY    48  39  69 N7        30.23R
WAUKEGAN       MOCLDY    43  37  79 N3        30.23R
6HR MIN TEMP:  43; 6HR MAX TEMP:  48;

DUPAGE AIRPORT CLOUDY    48  37  65 NE14      30.23R
6HR MIN TEMP:  48; 6HR MAX TEMP:  57;

KANKAKEE*      CLOUDY    50  41  71 N6        30.22R
WHEELING       CLOUDY    49  37  63 N9        30.24R
6HR MIN TEMP:  49; 6HR MAX TEMP:  53;

MORRIS*        CLOUDY    49  41  73 NE3       30.22R
ROMEOVILLE*    CLOUDY    48  38  68 N7        30.23R
NORTHERLY ISL    N/A     49  39  68 N13         N/A
$$

LMZ740>746-220100-
SOUTHERN LAKE MICHIGAN

STATION/POSITION SKY/WX   TEMP    WIND        PRES    VSBY  WAVE
                          AIR SEA DIR/SP/G                  HT/PER
                          (F)     (DEG/KT/KT) (MB)    (MI)  (FT/S)
SOUTHERN BUOY              49 54  350/ 16/ 17 1023.4R         5/ 6
WAUKEGAN HARBOR            48      10/ 17/ 20   N/A
HARRISON CRIB              49     360/ 18/ 23   N/A
BURNHAM HARBOR             49      10/ 11/ 15   N/A
CALUMET HARBOR             50     360/ 12/ 16 1021.9R
MICHIGAN CITY              50     360/ 16/ 19   N/A
$$

ILZ025>027-034>036-040-047-049-050-058-095>099-220100-
WEST-CENTRAL ILLINOIS

CITY           SKY/WX    TMP DP  RH WIND       PRES   REMARKS
QUINCY         CLEAR     55  39  54 NE5       30.16R
GALESBURG*     CLEAR     47  39  75 NE5       30.19R
MACOMB*        CLEAR     49  38  65 E7        30.20R
JACKSONVILLE*  CLEAR     53  41  62 NE6       30.17R
PITTSFIELD*      N/A     56  41  58 CALM      30.16S HAZE
$$

ILZ028>032-037-038-041>044-048-051>054-059>061-220100-
CENTRAL ILLINOIS

CITY           SKY/WX    TMP DP  RH WIND       PRES   REMARKS
PONTIAC        PTCLDY    48  40  72 NE10      30.22R
BLOOMINGTON    CLEAR     49  41  74 NE12      30.20R
DECATUR        CLEAR     50  40  68 NE13      30.17R
PEORIA         CLEAR     51  38  60 E5        30.19R
6HR MIN TEMP:  51; 6HR MAX TEMP:  61;

LACON*         CLEAR     47  37  68 NE5       30.20R
LINCOLN*       CLEAR     50  39  66 NE5       30.17R
SPRINGFIELD    CLEAR     50  40  68 N5        30.17R
6HR MIN TEMP:  50; 6HR MAX TEMP:  63;

TAYLORVILLE    CLEAR     52  37  58 NE3       30.16R
$$

ILZ033-039-045-046-055>057-062-063-220100-
EAST-CENTRAL ILLINOIS

CITY           SKY/WX    TMP DP  RH WIND       PRES   REMARKS
CHAMPAIGN      PTCLDY    50  41  71 NE13      30.19R
DANVILLE*      CLOUDY    49  43  79 N8        30.16R
RANTOUL*       CLOUDY    53  41  65 NE8       30.20R
MATTOON        CLEAR     50  40  68 NE8       30.16R
PARIS*         CLOUDY    53  45  74 N3        30.18R
$$

ILZ079-100>102-220100-
SOUTHWEST ILLINOIS

CITY           SKY/WX    TMP DP  RH WIND       PRES   REMARKS
ALTON          CLEAR     55  36  47 NE6       30.16R
BELLEVILLE     CLEAR     57  44  62 NE5       30.13R
CAHOKIA*       CLEAR     58  45  62 NE7       30.14R
SPARTA*        CLEAR     55  43  64 NE5       30.13R
$$

ILZ064>066-069>071-074>076-080>082-084>086-088>090-092>094-220100-
SOUTH-CENTRAL ILLINOIS

CITY           SKY/WX    TMP DP  RH WIND       PRES   REMARKS
CARBONDALE     CLEAR     58  42  55 N3        30.12R
6HR MIN TEMP:  58; 6HR MAX TEMP:  70;

CAIRO*         CLEAR     61  46  57 N3        30.09R
EFFINGHAM*     CLEAR     54  35  49 NE3       30.15R
MARION         CLEAR     55  45  67 N3        30.12R
MT. VERNON     CLEAR     54  41  62 N5        30.14R
CENTRALIA*     CLEAR     56  40  55 NE3       30.14R
SALEM*         CLEAR     56  44  62 NE3       30.15R
METROPOLIS*    CLEAR     60  47  61 CALM      30.09R
$$

ILZ067-068-072-073-078-083-087-091-220100-
SOUTHEAST ILLINOIS

CITY           SKY/WX    TMP DP  RH WIND       PRES   REMARKS
LAWRENCEVILLE  CLEAR     52  42  69 NE8       30.15R
FLORA*         CLEAR     54  40  61 NE3       30.15S
FAIRFIELD*     CLEAR     53  42  65 N5        30.13R
HARRISBURG*    CLEAR     56  43  61 NE5       30.13R
ROBINSON*      PTCLDY    53  42  64 NE6       30.16S
CARMI*         CLEAR     54  44  68 N6        30.13R
$$

ABBREVIATIONS USED IN REMARKS
   TC - TEMPERATURE IN CELSIUS
  WCI - WIND CHILL INDEX
   HX - HEAT INDEX
  VSB - VISIBILITY
$$




USA.gov is the U.S. government's official web portal to all federal, state and local government web resources and services.